[[{"header":{"parameterUnit":"m.s-1","parameterCategory":1,"la1":30.2991,"la2":30.254,"lo1":-89.0895,"lo2":-89.0444,"dy":0.0017,"dx":0.0017,"nx":28,"ny":28,"refTime":"2023-08-12T09:00:00:Z","depth":0,"parameterNumber":2,"parameterNumberName":"U-component_of_WINDS"},"data":[0,0,0,0,0,0,0,0,0,0,0,0,0,0,0,0,0,0,0,0,0,0,0,0,0,0,0,0,0,0,0,0,0,0,0,0,0,0,0,0,0,0,0,0,0,0,0,0,0,0,0,0,0,0,0,0,0,0,3.2596,3.2597,0,3.2628,3.2628,3.2629,3.2629,3.2629,3.2628,3.2628,3.266,3.2661,3.2663,0,0,0,0,0,0,0,0,0,0,0,0,0,3.2538,3.2539,3.2596,3.2597,3.2597,3.2628,3.2628,3.2629,3.2629,3.2629,3.2628,3.2628,3.266,3.2661,3.2663,0,0,0,0,0,0,0,0,0,0,0,0,0,3.2566,3.2539,3.2596,3.2601,3.2602,3.2628,3.2628,3.2629,3.2629,3.2629,3.2628,3.2628,3.2659,3.2661,3.2663,3.2686,0,0,3.2669,3.2669,0,0,0,0,0,0,0,0,3.2564,3.2568,3.26,3.2601,3.2602,3.2624,3.262,3.2648,3.263,3.2619,3.2628,3.2627,3.2649,3.2651,3.2659,3.2688,3.2689,3.2669,3.267,3.2671,3.2671,0,0,0,0,0,0,0,3.2562,3.2566,3.2609,3.26,3.2601,3.2602,3.2605,3.2625,3.2637,3.262,3.262,3.2624,3.2649,3.2657,3.2659,3.269,3.2669,3.267,3.2671,3.2672,3.2742,3.2743,0,0,0,0,0,0,3.2559,3.2565,3.2608,3.261,3.2581,3.2604,3.2607,3.2617,3.2637,3.2639,3.2624,3.2624,3.2654,3.2657,3.266,3.269,3.2671,3.2672,3.2673,3.2742,3.2742,3.2743,0,0,0,0,0,0,3.2558,3.2563,3.2607,3.2587,3.2593,3.2605,3.2617,3.2618,3.2626,3.264,3.2642,3.263,3.2654,3.2658,3.268,3.2691,3.2673,3.2675,3.2741,3.2742,3.2743,3.275,0,0,0,0,0,0,3.2556,3.2562,3.2571,3.2588,3.2594,3.2625,3.2617,3.2619,3.2629,3.2629,3.2646,3.2648,3.2653,3.2678,3.2682,3.2694,3.2676,3.274,3.2741,3.2742,3.2748,3.2751,3.2753,0,0,0,0,0,3.2554,3.2571,3.2571,3.2576,3.2605,3.2626,3.263,3.2636,3.263,3.2639,3.2649,3.2647,3.269,3.268,3.2685,3.2697,3.2739,3.2741,3.2742,3.2747,3.275,3.2753,0,0,0,0,0,0,3.2554,3.2573,3.2574,3.2596,3.261,3.2626,3.2637,3.2638,3.2653,3.2652,3.2659,3.2663,3.2686,3.2694,3.2683,3.2722,3.2714,3.2717,3.2716,3.2719,3.2721,3.2718,3.2678,0,0,0,0,0,3.2557,3.2573,3.2588,3.2607,3.2614,3.2625,3.2634,3.2638,3.2652,3.2657,3.2668,3.2682,3.2699,3.2709,3.2725,3.275,3.2754,3.2761,3.2763,3.2765,3.2767,3.2783,3.2787,3.2749,3.2749,3.2749,0,0,3.2563,3.2575,3.2584,3.2607,3.2618,3.2635,3.2629,3.2646,3.2659,3.266,3.2682,3.2691,3.2707,3.2731,3.2743,3.2739,3.2779,3.2767,3.2769,3.277,3.2785,3.2789,3.2792,3.275,3.275,3.275,0,0,3.2582,3.2592,3.261,3.2621,3.2638,3.2646,3.265,3.2667,3.2673,3.2695,3.2697,3.2713,3.2741,3.2753,3.2762,3.2789,3.2789,3.2794,3.2805,3.2821,3.2824,3.2826,3.2837,3.284,3.2796,3.2796,3.2796,0,3.2587,3.2611,3.2618,3.2637,3.2647,3.265,3.2669,3.2679,3.27,3.2708,3.2704,3.2741,3.2751,3.2779,3.2786,3.2794,3.28,3.2792,3.2823,3.2825,3.2828,3.2838,3.2842,3.2797,3.2797,3.2797,3.2797,0,3.2617,3.2635,3.2647,3.2668,3.268,3.2698,3.2709,3.2721,3.2724,3.2733,3.2757,3.2771,3.279,3.2797,3.28,3.2827,3.2824,3.2821,3.2813,3.2832,3.2842,3.2845,3.2798,3.2798,3.2797,3.2797,0,0,3.2635,3.2662,3.2666,3.2677,3.2697,3.2711,3.273,3.275,3.276,3.2776,3.2792,3.2817,3.2816,3.2827,3.2832,3.2845,3.2867,3.2841,3.2841,3.2846,3.2898,3.29,3.2904,3.2868,3.2868,3.2869,3.2897,0,3.2657,3.269,3.2699,3.2728,3.2745,3.2749,3.2766,3.2781,3.279,3.2806,3.2816,3.2834,3.283,3.2837,3.285,3.2861,3.2878,3.286,3.2884,3.2885,3.2879,3.2909,3.2911,3.2937,3.2901,3.2901,3.2902,0,3.2686,3.2703,3.2734,3.2754,3.2761,3.2776,3.2796,3.2811,3.2829,3.2835,3.2848,3.2853,3.2874,3.2865,3.2895,3.2883,3.2894,3.2901,3.2902,3.2904,3.2894,3.2913,3.2945,3.2949,3.2908,3.2907,3.2907,0,3.2697,3.2727,3.275,3.2759,3.2783,3.2794,3.2804,3.2821,3.2833,3.2851,3.2859,3.2879,3.289,3.2905,3.2915,3.2908,3.2945,3.2937,3.2951,3.2951,3.2958,3.2957,3.2993,3.2965,3.2965,3.2965,3.2965,0,3.272,3.2739,3.2756,3.277,3.2792,3.2802,3.2824,3.2835,3.285,3.2867,3.2872,3.2888,3.29,3.2918,3.2926,3.2951,3.2955,3.2961,3.2963,3.2961,3.296,3.2968,3.2966,3.2966,3.2966,3.2966,3.2965,0,3.2736,3.2748,3.2773,3.2794,3.28,3.2815,3.2834,3.2848,3.2858,3.288,3.2886,3.2901,3.2923,3.2935,3.2962,3.2967,3.2995,3.2996,3.2989,3.299,3.3004,3.3002,3.3045,3.3051,3.3019,3.3019,3.302,0,3.275,3.2764,3.2788,3.28,3.281,3.2829,3.2842,3.2853,3.2867,3.2889,3.2901,3.2923,3.2942,3.2976,3.299,3.3012,3.3013,3.3027,3.3016,3.3014,3.3014,3.3013,3.3015,3.3028,3.3029,3.3029,3.3029,0,3.2773,3.2779,3.2797,3.2819,3.2834,3.2851,3.2868,3.2878,3.2892,3.2907,3.2929,3.2944,3.2972,3.2994,3.3017,3.3029,3.3032,3.3033,3.3037,3.3035,3.303,3.3034,3.2994,3.3031,3.3031,3.3031,3.3031,3.3031,3.2789,3.2803,3.2822,3.2843,3.2857,3.2874,3.2889,3.2901,3.292,3.2944,3.295,3.2974,3.2994,3.3025,3.3037,3.3057,3.3054,3.306,3.3062,3.3063,3.3064,3.3028,3.3061,3.3061,3.3061,3.3061,3.3061,0,3.2814,3.2827,3.2846,3.287,3.2887,3.2889,3.2908,3.2922,3.2944,3.2961,3.298,3.3007,3.3029,3.3046,3.3069,3.3081,3.3084,3.3087,3.3086,3.3089,3.3065,3.3059,3.3085,3.3085,3.3085,3.3085,3.3085,3.3085,3.2828,3.2853,3.2861,3.2894,3.2907,3.2931,3.2942,3.2957,3.2972,3.3002,3.302,3.3031,3.3049,3.3074,3.3095,3.31,3.3108,3.3112,3.3116,3.3093,3.3091,3.3088,3.3083,3.3113,3.3113,3.3139,3.3139,3.314]},{"header":{"parameterUnit":"m.s-1","parameterCategory":1,"la1":30.2991,"la2":30.254,"lo1":-89.0895,"lo2":-89.0444,"dy":0.0017,"dx":0.0017,"nx":28,"ny":28,"refTime":"2023-08-12T09:00:00:Z","depth":0,"parameterNumber":3,"parameterNumberName":"V-component_of_WINDS"},"data":[0,0,0,0,0,0,0,0,0,0,0,0,0,0,0,0,0,0,0,0,0,0,0,0,0,0,0,0,0,0,0,0,0,0,0,0,0,0,0,0,0,0,0,0,0,0,0,0,0,0,0,0,0,0,0,0,0,0,-1.1025,-1.1025,0,-1.1047,-1.1048,-1.1048,-1.1054,-1.1054,-1.1054,-1.1054,-1.1076,-1.1077,-1.1077,0,0,0,0,0,0,0,0,0,0,0,0,0,-1.0989,-1.0989,-1.1025,-1.1025,-1.1026,-1.1047,-1.1048,-1.1048,-1.1054,-1.1054,-1.1054,-1.1054,-1.1076,-1.1077,-1.1078,0,0,0,0,0,0,0,0,0,0,0,0,0,-1.1007,-1.099,-1.1025,-1.1032,-1.1032,-1.1047,-1.1048,-1.1048,-1.1055,-1.1054,-1.1054,-1.1054,-1.1076,-1.1077,-1.1078,-1.1088,0,0,-1.1081,-1.1081,0,0,0,0,0,0,0,0,-1.1006,-1.1008,-1.103,-1.1031,-1.1032,-1.1048,-1.1043,-1.1061,-1.1055,-1.1046,-1.1054,-1.1054,-1.1067,-1.1069,-1.1073,-1.1089,-1.109,-1.1081,-1.1082,-1.1082,-1.1082,0,0,0,0,0,0,0,-1.1005,-1.1007,-1.1034,-1.1031,-1.1032,-1.1034,-1.1036,-1.1046,-1.1057,-1.1047,-1.1047,-1.105,-1.1067,-1.1072,-1.1074,-1.109,-1.1081,-1.1082,-1.1082,-1.1083,-1.1117,-1.1117,0,0,0,0,0,0,-1.1002,-1.1006,-1.1033,-1.1035,-1.1018,-1.1034,-1.1037,-1.1043,-1.1057,-1.1059,-1.105,-1.105,-1.107,-1.1072,-1.1074,-1.1088,-1.1082,-1.1083,-1.1084,-1.1116,-1.1117,-1.1117,0,0,0,0,0,0,-1.1002,-1.1005,-1.1032,-1.1021,-1.1024,-1.1035,-1.1042,-1.1044,-1.1048,-1.106,-1.1061,-1.1053,-1.107,-1.1073,-1.1085,-1.1089,-1.1083,-1.1084,-1.1116,-1.1116,-1.1117,-1.1115,0,0,0,0,0,0,-1.1001,-1.1004,-1.1008,-1.1021,-1.1025,-1.1042,-1.1042,-1.1044,-1.105,-1.1051,-1.1063,-1.1065,-1.107,-1.1083,-1.1086,-1.109,-1.1085,-1.1116,-1.1116,-1.1117,-1.1115,-1.1115,-1.1116,0,0,0,0,0,-1.0999,-1.1006,-1.1008,-1.1011,-1.103,-1.1042,-1.1045,-1.1051,-1.1051,-1.1055,-1.1062,-1.1064,-1.1088,-1.1084,-1.1087,-1.1092,-1.1115,-1.1116,-1.1117,-1.1115,-1.1115,-1.1116,0,0,0,0,0,0,-1.0993,-1.1008,-1.101,-1.1021,-1.1031,-1.1043,-1.1048,-1.1052,-1.1061,-1.1061,-1.1069,-1.1071,-1.1083,-1.1089,-1.1084,-1.1104,-1.1102,-1.1103,-1.1099,-1.11,-1.1101,-1.1099,-1.1086,0,0,0,0,0,-1.0993,-1.1002,-1.1014,-1.1023,-1.1027,-1.1037,-1.1043,-1.1048,-1.1057,-1.1061,-1.1069,-1.1078,-1.1088,-1.1095,-1.1104,-1.1116,-1.1119,-1.1121,-1.1121,-1.1122,-1.1123,-1.1131,-1.1133,-1.1119,-1.1119,-1.1119,0,0,-1.0992,-1.1002,-1.1007,-1.1022,-1.103,-1.1039,-1.104,-1.105,-1.1057,-1.1062,-1.1074,-1.1081,-1.1092,-1.1104,-1.111,-1.1109,-1.1128,-1.1123,-1.1123,-1.1124,-1.1132,-1.1133,-1.1134,-1.1119,-1.1119,-1.1119,0,0,-1.0997,-1.1005,-1.1013,-1.1022,-1.1034,-1.104,-1.1043,-1.1055,-1.106,-1.1072,-1.1077,-1.1086,-1.1102,-1.111,-1.1117,-1.1127,-1.113,-1.113,-1.1132,-1.114,-1.1142,-1.1143,-1.1147,-1.1149,-1.1131,-1.1131,-1.1131,0,-1.0995,-1.101,-1.1017,-1.1027,-1.1034,-1.1041,-1.105,-1.1057,-1.1072,-1.1077,-1.1076,-1.1098,-1.1106,-1.1121,-1.1123,-1.1128,-1.1131,-1.1128,-1.1141,-1.1142,-1.1143,-1.1148,-1.1149,-1.1131,-1.1131,-1.1131,-1.1131,0,-1.1007,-1.1017,-1.1023,-1.1038,-1.1046,-1.1055,-1.1065,-1.1072,-1.1076,-1.1083,-1.1097,-1.1107,-1.1119,-1.1123,-1.1127,-1.1139,-1.1139,-1.1139,-1.1138,-1.1144,-1.1149,-1.115,-1.113,-1.113,-1.1131,-1.1131,0,0,-1.1007,-1.1028,-1.103,-1.1037,-1.1052,-1.106,-1.1071,-1.1083,-1.109,-1.11,-1.1109,-1.1124,-1.1125,-1.1133,-1.1138,-1.1145,-1.1154,-1.1145,-1.1145,-1.1147,-1.117,-1.1169,-1.1171,-1.1156,-1.1156,-1.1156,-1.1169,0,-1.1014,-1.1033,-1.1042,-1.1057,-1.1068,-1.1074,-1.1084,-1.1094,-1.1101,-1.1111,-1.1119,-1.113,-1.1131,-1.1135,-1.1143,-1.1151,-1.1159,-1.115,-1.1165,-1.1166,-1.1163,-1.1173,-1.1173,-1.1184,-1.1171,-1.1171,-1.1171,0,-1.1024,-1.1036,-1.1053,-1.1068,-1.1073,-1.1081,-1.1094,-1.1104,-1.1116,-1.1121,-1.113,-1.1135,-1.1148,-1.1145,-1.1163,-1.1157,-1.1164,-1.1169,-1.117,-1.1172,-1.1169,-1.1176,-1.1188,-1.119,-1.1174,-1.1174,-1.1173,0,-1.1024,-1.1044,-1.1057,-1.1063,-1.1081,-1.1087,-1.1094,-1.1106,-1.1114,-1.1126,-1.1132,-1.1144,-1.1151,-1.1161,-1.117,-1.1168,-1.1188,-1.1186,-1.1193,-1.1192,-1.1196,-1.1196,-1.121,-1.12,-1.12,-1.12,-1.12,0,-1.1031,-1.1041,-1.1057,-1.1065,-1.1077,-1.1087,-1.1099,-1.1107,-1.1118,-1.1129,-1.1135,-1.1145,-1.1156,-1.1167,-1.1174,-1.1188,-1.1191,-1.1196,-1.1198,-1.1196,-1.1195,-1.12,-1.12,-1.12,-1.12,-1.12,-1.12,0,-1.1032,-1.1043,-1.1058,-1.1074,-1.1079,-1.1087,-1.1101,-1.111,-1.1118,-1.1131,-1.1135,-1.1148,-1.1162,-1.1172,-1.1189,-1.1194,-1.1209,-1.1211,-1.1205,-1.1206,-1.1213,-1.1213,-1.1231,-1.1234,-1.1221,-1.1222,-1.1222,0,-1.1036,-1.1045,-1.1063,-1.107,-1.1078,-1.109,-1.1099,-1.1109,-1.1118,-1.1134,-1.1141,-1.1155,-1.1167,-1.1189,-1.12,-1.1214,-1.1216,-1.1222,-1.1218,-1.1217,-1.1218,-1.1217,-1.1219,-1.1222,-1.1222,-1.1222,-1.1223,0,-1.1043,-1.1048,-1.106,-1.1075,-1.1085,-1.1097,-1.1109,-1.1115,-1.1128,-1.1137,-1.1152,-1.1162,-1.118,-1.1195,-1.121,-1.1218,-1.1223,-1.1224,-1.1226,-1.1224,-1.1221,-1.1224,-1.1207,-1.1223,-1.1223,-1.1223,-1.1223,-1.1223,-1.1046,-1.1055,-1.1069,-1.1083,-1.1093,-1.1105,-1.1114,-1.1125,-1.1137,-1.1153,-1.1159,-1.1174,-1.1188,-1.121,-1.1218,-1.1231,-1.1231,-1.1234,-1.1235,-1.1236,-1.1236,-1.1219,-1.1234,-1.1234,-1.1234,-1.1234,-1.1234,0,-1.1054,-1.1064,-1.1076,-1.1094,-1.1105,-1.1109,-1.1123,-1.1132,-1.1146,-1.1159,-1.1171,-1.1189,-1.1204,-1.1217,-1.1232,-1.124,-1.1243,-1.1244,-1.1243,-1.1246,-1.1235,-1.1232,-1.1241,-1.1241,-1.1241,-1.1241,-1.1241,-1.1241,-1.1059,-1.1074,-1.1081,-1.1102,-1.1112,-1.1128,-1.1136,-1.1147,-1.1158,-1.1177,-1.119,-1.1199,-1.1212,-1.1229,-1.1243,-1.1246,-1.1252,-1.1253,-1.1257,-1.1247,-1.1246,-1.1245,-1.1242,-1.1254,-1.1254,-1.1267,-1.1267,-1.1267]}]]